This is the latest recevied weather packets stored in our database for station/object DO8TBO-15. If no packets are shown the sender has not sent any weather packets the latest 10 day(s).
| Time | Temp. | Humidity | Pressure | Rain* | Wind** | Luminosity | Snow |
|---|---|---|---|---|---|---|---|
| 1777666560 | 11.67° C | - | 1024.6 hPa | 0 mm | - | - | - |
| 1777665955 | 12.78° C | - | 1024.6 hPa | 0 mm | - | - | - |
| 1777665352 | 12.78° C | - | 1024.4 hPa | 0 mm | - | - | - |
| 1777664748 | 13.89° C | - | 1024.6 hPa | 0 mm | - | - | - |
| 1777664144 | 14.44° C | - | 1024.6 hPa | 0 mm | - | - | - |
| 1777662937 | 15.56° C | - | 1024.6 hPa | 0 mm | - | - | - |
| 1777662333 | 16.11° C | - | 1024.5 hPa | 0 mm | - | - | - |
| 1777661729 | 16.67° C | - | 1024.5 hPa | 0 mm | - | - | - |
| 1777660521 | 17.78° C | - | 1024.4 hPa | 0 mm | - | - | - |
| 1777659917 | 18.89° C | - | 1024.5 hPa | 0 mm | - | - | - |
| 1777659374 | 19.44° C | - | 1024.4 hPa | 0 mm | - | - | - |
| 1777658770 | 20.56° C | - | 1024.4 hPa | 0 mm | - | - | - |
| 1777658166 | 22.22° C | - | 1024.3 hPa | 0 mm | - | - | - |
| 1777657562 | 22.22° C | - | 1024.2 hPa | 0 mm | - | - | - |
| 1777656959 | 22.78° C | - | 1024.2 hPa | 0 mm | - | - | - |
| 1777656354 | 23.33° C | - | 1024.3 hPa | 0 mm | - | - | - |
| 1777655751 | 23.89° C | - | 1024.3 hPa | 0 mm | - | - | - |
| 1777655147 | 25° C | - | 1024.4 hPa | 0 mm | - | - | - |
| 1777654543 | 24.44° C | - | 1024.4 hPa | 0 mm | - | - | - |
| 1777653939 | 24.44° C | - | 1024.4 hPa | 0 mm | - | - | - |
| 1777653335 | 25° C | - | 1024.4 hPa | 0 mm | - | - | - |
| 1777652732 | 25° C | - | 1024.6 hPa | 0 mm | - | - | - |
| 1777652163 | 25.56° C | - | 1024.7 hPa | 0 mm | - | - | - |
| 1777651555 | 25.56° C | - | 1024.8 hPa | 0 mm | - | - | - |
| 1777649743 | 25° C | - | 1024.9 hPa | 0 mm | - | - | - |
* Rain latest hour (hover to see other rain measurements)
** Current wind speed in m/s (hover to see current wind gust speed)